Hourly Weather Bolshie Nyrty

Today, 23 June, Wednesday

Time Temperature Precipitation Wind Pressure Humidity
00:00 +23°C° 0 mm 2 mps 753 mmHg 80%
01:00 +23°C° 0 mm 2 mps 753 mmHg 79%
02:00 +21°C° 0 mm 2 mps 753 mmHg 78%
03:00 +20°C° 0 mm 2 mps 753 mmHg 79%
04:00 +21°C° 0 mm 2 mps 753 mmHg 77%
05:00 +24°C° 0 mm 2 mps 753 mmHg 75%
06:00 +25°C° 0 mm 2 mps 753 mmHg 74%
07:00 +26°C° 0 mm 3 mps 753 mmHg 70%
08:00 +28°C° 0 mm 3 mps 753 mmHg 65%
09:00 +29°C° 0 mm 4 mps 753 mmHg 59%
10:00 +30°C° 0 mm 4 mps 753 mmHg 57%
11:00 +32°C° 0 mm 4 mps 753 mmHg 54%
12:00 +33°C° 0 mm 4 mps 753 mmHg 51%
13:00 +33°C° 0 mm 4 mps 753 mmHg 50%
14:00 +33°C° 0 mm 4 mps 752 mmHg 50%
15:00 +33°C° 0 mm 4 mps 752 mmHg 50%
16:00 +32°C° 0 mm 4 mps 752 mmHg 55%
17:00 +30°C° 0 mm 4 mps 752 mmHg 60%
18:00 +29°C° 0 mm 4 mps 753 mmHg 65%
19:00 +27°C° 0.1 mm 3 mps 753 mmHg 69%
20:00 +25°C° 0.1 mm 3 mps 753 mmHg 74%
21:00 +23°C° 0.1 mm 2 mps 753 mmHg 78%
22:00 +21°C° 0.2 mm 2 mps 753 mmHg 81%
23:00 +22°C° 0.2 mm 1 mps 753 mmHg 84%

Tomorrow, 24 June, Thursday

Time Temperature Precipitation Wind Pressure Humidity
00:00 +21°C° 0.2 mm 1 mps 753 mmHg 87%
01:00 +21°C° 0 mm 1 mps 753 mmHg 88%
02:00 +20°C° 0 mm 2 mps 753 mmHg 89%
03:00 +20°C° 0 mm 2 mps 753 mmHg 89%
04:00 +21°C° 0 mm 2 mps 753 mmHg 86%
05:00 +23°C° 0 mm 2 mps 754 mmHg 84%
06:00 +24°C° 0 mm 1 mps 754 mmHg 81%
07:00 +25°C° 0 mm 1 mps 754 mmHg 75%
08:00 +26°C° 0 mm 1 mps 754 mmHg 70%
09:00 +28°C° 0 mm 1 mps 754 mmHg 64%
10:00 +29°C° 0 mm 1 mps 754 mmHg 60%
11:00 +30°C° 0 mm 1 mps 754 mmHg 56%
12:00 +31°C° 0 mm 1 mps 754 mmHg 52%
13:00 +31°C° 0 mm 1 mps 753 mmHg 52%
14:00 +31°C° 0 mm 1 mps 753 mmHg 51%
15:00 +31°C° 0 mm 2 mps 753 mmHg 51%
16:00 +31°C° 0 mm 2 mps 752 mmHg 57%
17:00 +30°C° 0 mm 3 mps 752 mmHg 63%
18:00 +29°C° 0 mm 3 mps 751 mmHg 69%
19:00 +27°C° 0.6 mm 3 mps 751 mmHg 75%
20:00 +25°C° 0.6 mm 3 mps 752 mmHg 82%
21:00 +22°C° 0.6 mm 3 mps 752 mmHg 88%
22:00 +21°C° 2.6 mm 3 mps 751 mmHg 89%
23:00 +20°C° 2.6 mm 3 mps 751 mmHg 91%

Day after tomorrow, 25 June, Friday

Time Temperature Precipitation Wind Pressure Humidity
00:00 +20°C° 2.6 mm 4 mps 751 mmHg 92%
01:00 +20°C° 0.4 mm 3 mps 751 mmHg 92%
02:00 +20°C° 0.4 mm 3 mps 750 mmHg 92%
03:00 +20°C° 0.4 mm 2 mps 750 mmHg 92%
04:00 +20°C° 0.2 mm 2 mps 750 mmHg 90%
05:00 +21°C° 0.2 mm 2 mps 750 mmHg 89%
06:00 +22°C° 0.2 mm 3 mps 751 mmHg 87%
07:00 +24°C° 0 mm 3 mps 750 mmHg 81%
08:00 +26°C° 0 mm 2 mps 750 mmHg 75%
09:00 +27°C° 0 mm 2 mps 750 mmHg 69%
10:00 +29°C° 0 mm 3 mps 750 mmHg 65%
11:00 +30°C° 0 mm 3 mps 750 mmHg 62%
12:00 +31°C° 0 mm 3 mps 750 mmHg 58%
13:00 +33°C° 0 mm 3 mps 750 mmHg 57%
14:00 +33°C° 0 mm 4 mps 750 mmHg 55%
15:00 +34°C° 0 mm 4 mps 749 mmHg 53%
16:00 +33°C° 0 mm 3 mps 749 mmHg 59%
17:00 +32°C° 0 mm 2 mps 749 mmHg 64%
18:00 +31°C° 0 mm 2 mps 748 mmHg 69%
19:00 +29°C° 0 mm 2 mps 748 mmHg 72%
20:00 +28°C° 0 mm 2 mps 748 mmHg 75%
21:00 +26°C° 0 mm 2 mps 748 mmHg 77%
22:00 +25°C° 0 mm 3 mps 748 mmHg 80%
23:00 +24°C° 0 mm 3 mps 748 mmHg 82%

26 June, Saturday

Time Temperature Precipitation Wind Pressure Humidity
00:00 +22°C° 0 mm 4 mps 748 mmHg 85%
01:00 +22°C° 0 mm 3 mps 748 mmHg 87%
02:00 +21°C° 0 mm 3 mps 748 mmHg 90%
03:00 +20°C° 0 mm 2 mps 748 mmHg 92%
04:00 +21°C° 0 mm 2 mps 749 mmHg 87%
05:00 +23°C° 0 mm 2 mps 749 mmHg 83%
06:00 +24°C° 0 mm 2 mps 749 mmHg 79%
07:00 +25°C° 0 mm 2 mps 749 mmHg 74%
08:00 +27°C° 0 mm 2 mps 749 mmHg 69%
09:00 +28°C° 0 mm 3 mps 749 mmHg 64%
10:00 +29°C° 0 mm 3 mps 749 mmHg 61%
11:00 +30°C° 0 mm 3 mps 749 mmHg 58%
12:00 +31°C° 0 mm 3 mps 749 mmHg 55%
13:00 +31°C° 0 mm 3 mps 749 mmHg 54%
14:00 +31°C° 0 mm 3 mps 749 mmHg 54%
15:00 +31°C° 0 mm 3 mps 749 mmHg 53%
16:00 +30°C° 0 mm 3 mps 748 mmHg 58%
17:00 +30°C° 0 mm 2 mps 748 mmHg 64%
18:00 +29°C° 0 mm 2 mps 748 mmHg 69%
19:00 +27°C° 0.1 mm 2 mps 748 mmHg 73%
20:00 +26°C° 0.1 mm 2 mps 748 mmHg 77%
21:00 +24°C° 0.1 mm 1 mps 748 mmHg 81%
22:00 +23°C° 0.3 mm 1 mps 749 mmHg 83%
23:00 +23°C° 0.3 mm 1 mps 749 mmHg 86%

27 June, Sunday

Time Temperature Precipitation Wind Pressure Humidity
00:00 +22°C° 0.3 mm 1 mps 749 mmHg 88%
01:00 +22°C° 0 mm 1 mps 749 mmHg 88%
02:00 +22°C° 0 mm 1 mps 749 mmHg 88%
03:00 +22°C° 0 mm 1 mps 749 mmHg 88%
04:00 +23°C° 0 mm 1 mps 749 mmHg 85%
05:00 +24°C° 0 mm 1 mps 749 mmHg 82%
06:00 +25°C° 0 mm 1 mps 749 mmHg 79%
07:00 +26°C° 0.2 mm 1 mps 749 mmHg 76%
08:00 +27°C° 0.2 mm 1 mps 749 mmHg 72%
09:00 +28°C° 0.2 mm 1 mps 749 mmHg 69%
10:00 +29°C° 1 mm 1 mps 749 mmHg 65%
11:00 +30°C° 1 mm 1 mps 749 mmHg 61%
12:00 +30°C° 1 mm 1 mps 749 mmHg 57%
13:00 +31°C° 0.3 mm 1 mps 748 mmHg 56%
14:00 +31°C° 0.3 mm 1 mps 748 mmHg 55%
15:00 +31°C° 0.3 mm 1 mps 748 mmHg 54%
16:00 +30°C° 0.4 mm 2 mps 748 mmHg 62%
17:00 +29°C° 0.4 mm 2 mps 748 mmHg 70%
18:00 +27°C° 0.4 mm 3 mps 747 mmHg 77%
19:00 +26°C° 2.2 mm 3 mps 748 mmHg 82%
20:00 +24°C° 2.2 mm 3 mps 748 mmHg 87%
21:00 +21°C° 2.2 mm 4 mps 748 mmHg 91%
22:00 +21°C° 0.4 mm 3 mps 748 mmHg 93%
23:00 +20°C° 0.4 mm 3 mps 748 mmHg 94%

28 June, Monday

Time Temperature Precipitation Wind Pressure Humidity
00:00 +20°C° 0.4 mm 3 mps 748 mmHg 95%
01:00 +19°C° 0.1 mm 3 mps 748 mmHg 96%
02:00 +19°C° 0.1 mm 2 mps 748 mmHg 96%
03:00 +18°C° 0.1 mm 2 mps 748 mmHg 96%
04:00 +19°C° 0 mm 3 mps 748 mmHg 94%
05:00 +20°C° 0 mm 3 mps 749 mmHg 91%
06:00 +21°C° 0 mm 3 mps 749 mmHg 89%
07:00 +22°C° 0 mm 4 mps 749 mmHg 83%
08:00 +23°C° 0 mm 4 mps 749 mmHg 77%
09:00 +26°C° 0 mm 5 mps 749 mmHg 71%
10:00 +26°C° 0 mm 5 mps 749 mmHg 68%
11:00 +27°C° 0 mm 5 mps 749 mmHg 65%
12:00 +28°C° 0 mm 5 mps 749 mmHg 62%
13:00 +28°C° 0 mm 5 mps 749 mmHg 62%
14:00 +27°C° 0 mm 4 mps 749 mmHg 62%
15:00 +27°C° 0 mm 4 mps 749 mmHg 63%
16:00 +27°C° 0 mm 4 mps 749 mmHg 65%
17:00 +26°C° 0 mm 4 mps 749 mmHg 67%
18:00 +26°C° 0 mm 4 mps 749 mmHg 69%
19:00 +25°C° 0 mm 4 mps 749 mmHg 72%
20:00 +22°C° 0 mm 3 mps 749 mmHg 75%
21:00 +21°C° 0 mm 3 mps 749 mmHg 78%
22:00 +20°C° 0 mm 3 mps 749 mmHg 78%
23:00 +20°C° 0 mm 3 mps 749 mmHg 79%
Show more